Weather in Novaya Adygeya

Russia / Republic of Adygea     45°01′12″N   38°55′57″E
temp.,
°C
wind,
m/s
gust,
m/s
humid.,
%
clouds,
%
prec.,
mm/h
press.,
hPa
HPBL,
m
3 march, wed
wed300:00+3wsw4107690 0.0 1024652
03:00+4sw5137795 0.0 10221127
06:00+5wsw71482100 0.4 10191176
09:00+3wnw71194100 2.8 1020754
12:00+4wnw5982100 0.2 1021840
15:00+6nw576193 0.6 10221318
18:00+4nw476482 0.1 1024813
21:00+3wsw247266 0.1 1026173
4 march, thu
thu400:00+2wsw357751 0.0 1027157
03:00+1wsw248125 0.0 1027126
06:00+1sw23820 0.0 102764
09:00+3sw24690 0.0 1027225
12:00+8wsw46470 0.0 10251377
15:00+9sw684914 0.0 10241687
18:00+6sw596778 0.1 1022988
21:00+4sw4107054 0.1 1022653
5 march, fri
fri500:00+3sw412700 0.0 1021659
03:00+3sw311730 0.0 1021542
06:00+2sw39770 0.0 1020393
09:00+6sw413660 0.0 1020709
12:00+10sw712460 0.0 1018984
15:00+11sw712460 0.0 10171012
18:00+8ssw715530 0.0 1017795
21:00+7ssw718535 0.0 1018693
6 march, sat
sat600:00+8ssw81952100 0.0 1017684
03:00+8ssw81948100 0.0 1017656
06:00+8sw7185588 0.0 1016764
09:00+10sw8155993 0.0 1016901
12:00+12sw8125898 0.0 1016990
15:00+12sw6106099 0.0 10151166
18:00+8nnw5779100 0.1 1016545
21:00+3nnw71192100 1.3 1018523
7 march, sun
sun700:00+2nw4793100 2.4 1020458
03:00+2nnw3773100 3.5 1022990
06:000nnw487033 0.0 1024517
09:000nnw474529 0.0 1026767
12:00+2nw45380 0.0 10261414
15:00+4wnw45390 0.0 10241662
18:00+2wnw35460 0.0 1024844
21:00+1wsw24510 0.0 1024527